Last reported at 2013-Aug-05 06:16 UTC.
Time now 2014-Apr-24 13:52 UTC

Location: N 54°24' W 132°24'.
View on Google Maps.

See reports from other nearby stations

Tides Stations Pressure Air Temp Water Temp Dewpoint Dewpoint depression Visibility Wind Speed Wind Dir Waves Ship positions

  
sailing weather and tide predictions

Current Weather: station 46145

date/time (UTC)wind fromknots sea level pressurealtimeterstation pressurevisibilityair tempwater tempwave heightnotes
2014-Apr-24 12:00 360 9 gusting 11 6.4 7.1 0.8
2014-Apr-24 11:00 360 11 gusting 11 6.5 7.2 0.8
2014-Apr-24 10:00 350 7 gusting 9 6.7 7.2 0.7
2014-Apr-24 09:00 340 3 gusting 5 7.0 7.1 0.6
2014-Apr-24 08:00 340 5 gusting 5 6.9 7.4 0.6
2014-Apr-24 07:00 340 3 gusting 5 6.9 7.4 0.7
2014-Apr-24 06:00 340 7 gusting 7 6.9 7.6 0.7
2014-Apr-24 05:00 330 5 gusting 7 6.8 7.6 0.7
2014-Apr-24 04:00 330 3 gusting 5 7.0 7.7 0.9
2014-Apr-24 03:00 340 3 gusting 3 7.5 7.7 0.8
2014-Apr-24 02:00 040 1 gusting 3 7.5 7.7 0.9
2014-Apr-24 01:00 060 5 gusting 5 7.1 7.7 0.9
2014-Apr-24 00:00 060 7 gusting 7 6.8 7.9 1.0
2014-Apr-23 23:00 060 5 gusting 7 6.6 8.3 1.0
2014-Apr-23 22:00 030 3 gusting 5 6.7 8.7 1.0
2014-Apr-23 21:00 070 6.8 8.6 1.0
2014-Apr-23 20:00 040 1 gusting 3 6.4 8.0 1.1
2014-Apr-23 19:00 040 1 gusting 3 6.3 7.2 1.0
2014-Apr-23 18:00 010 1 gusting 3 6.0 7.0 1.1
2014-Apr-23 17:00 020 3 gusting 3 6.0 7.0 1.2
2014-Apr-23 16:00 020 3 gusting 5 6.3 6.8 1.2
2014-Apr-23 15:00 010 5 gusting 7 6.0 6.6 1.2
2014-Apr-23 14:00 300 3 gusting 3 6.1 6.8 1.2
2014-Apr-23 13:00 320 5 gusting 7 6.0 6.8 1.1
2014-Apr-23 12:00 310 5 gusting 7 6.0 6.7 1.2
2014-Apr-23 11:00 310 5 gusting 7 6.1 6.8 1.3
2014-Apr-23 10:00 300 5 gusting 7 6.2 6.7 1.6
2014-Apr-23 09:00 300 7 gusting 9 6.2 6.7 1.5
2014-Apr-23 08:00 300 9 gusting 11 6.1 6.8 1.7
2014-Apr-23 07:00 300 9 gusting 11 6.3 6.9 1.8
2014-Apr-23 06:00 280 9 gusting 11 6.3 7.0 1.7
2014-Apr-23 05:00 270 7 gusting 9 6.6 6.9 1.5
2014-Apr-23 04:00 280 9 gusting 11 6.7 6.9 1.4
2014-Apr-23 03:00 270 7 gusting 9 7.0 7.0 1.4
2014-Apr-23 02:00 290 9 gusting 11 7.2 7.1 1.6
2014-Apr-23 01:00 290 9 gusting 11 7.2 7.1 1.6
2014-Apr-23 00:00 290 11 gusting 13 7.2 7.1 1.5
2014-Apr-22 23:00 300 11 gusting 13 7.0 7.2 1.6
2014-Apr-22 22:00 290 9 gusting 13 6.8 7.1 1.3
2014-Apr-22 21:00 270 9 gusting 11 6.8 7.0 1.5
2014-Apr-22 20:00 260 7 gusting 9 6.6 7.0 1.6
2014-Apr-22 19:00 250 7 gusting 9 6.3 6.9 1.6
2014-Apr-22 18:00 240 5 gusting 7 6.2 6.8 1.6
2014-Apr-22 17:00 250 5 gusting 7 6.1 6.7 1.7
2014-Apr-22 16:00 240 5 gusting 7 5.7 6.7 1.5
2014-Apr-22 15:00 310 3 gusting 5 5.5 6.5 1.5
2014-Apr-22 14:00 280 1 gusting 5 4.9 6.5 1.5
2014-Apr-22 13:00 310 1 gusting 3 4.2 6.5 1.6